Flag for Germany Weather past 2 weeks in Tübingen, Baden-Württemberg, Germany

Now
52 °F

Clear.


Feels Like: 52 °F
Forecast: 48 / 69 °F
Wind: 2 mph from North

Location: Stuttgart-Echterdingen

Current Time: Apr 26, 2015 at 4:20:47 AM

Latest Report: Apr 26, 2015 at 3:50 AM


Visibility: 10 mi

Pressure: 29.86 "Hg

Humidity: 88%

Dew point: 48 °F

Location of TübingenLocation

Historic Weather in Tübingen — Graph

°F

Tübingen temperature yesterday

Maximum temperature yesterday: 66 °F (at 2:20 PM)
Minimum temperature yesterday: 41 °F (at 5:20 AM)
Average temperature yesterday: 53 °F

Past Weeks' High & Low Weather Summary

 TemperatureHumidityPressure
High77 °F (Apr 15, 3:20 PM)94% (Apr 25, 9:50 PM)30.42 "Hg (Apr 25, 9:50 PM)
Low32 °F (Apr 23, 6:20 AM)15% (Apr 15, 5:50 PM)29.83 "Hg (Apr 25, 7:50 PM)
Average54 °F57%30.15 "Hg
* Reported Apr 11 3:20 AM — Apr 26 3:20 AM, Tübingen, Weather by CustomWeather, © 2015

Note: Actual official high and low records may vary slightly from our data, if they occured in-between our weather recording intervals... More about our weather records

Advertising

Tübingen weather history for previous 24 hours

 ConditionsComfort  
Time TempWeatherWind HumidityBarometerVisibility
3:20 AM
Sun, Apr 26
54 °FPartly cloudy.2 mph82%29.86 "HgN/A
2:50 AM54 °FPartly cloudy.2 mph88%29.86 "HgN/A
2:20 AM54 °FLight rain. Partly cloudy.3 mph88%29.86 "HgN/A
1:50 AM54 °FPassing clouds.3 mph88%29.86 "HgN/A
1:20 AM55 °FPassing clouds.6 mph82%29.86 "HgN/A
12:50 AM55 °FPassing clouds.6 mph82%29.86 "HgN/A
12:20 AM55 °FPassing clouds.5 mph82%29.86 "HgN/A
11:20 PM
Sat, Apr 25
55 °FPartly cloudy.5 mph82%29.86 "HgN/A
10:50 PM55 °FPartly cloudy.3 mph88%29.86 "HgN/A
10:20 PM55 °FPassing clouds.3 mph88%29.86 "HgN/A
9:50 PM55 °FSprinkles. Passing clouds.1 mph94%29.86 "HgN/A
9:20 PM55 °FPartly sunny.1 mph88%29.86 "HgN/A
8:50 PM57 °FPartly sunny.2 mph88%29.86 "HgN/A
8:20 PM57 °FBroken clouds.5 mph88%29.86 "HgN/A
7:50 PM57 °FBroken clouds.5 mph88%29.83 "HgN/A
7:20 PM57 °FPartly sunny.5 mph88%29.86 "HgN/A
6:50 PM57 °FLight rain. Broken clouds.7 mph88%29.86 "HgN/A
6:20 PM57 °FLight rain. Broken clouds.7 mph88%29.86 "HgN/A
5:50 PM59 °FLight rain. Broken clouds.8 mph77%29.86 "HgN/A
5:20 PM59 °FLight rain. Broken clouds.8 mph72%29.86 "HgN/A
4:50 PM61 °FSprinkles. Broken clouds.12 mph68%29.86 "HgN/A
4:20 PM63 °FSprinkles. Broken clouds.12 mph64%29.86 "HgN/A
3:50 PM63 °FSprinkles. Partly sunny.9 mph59%29.86 "HgN/A
3:20 PM61 °FSprinkles. Partly sunny.14 mph68%29.86 "HgN/A
2:50 PM63 °FSprinkles. Partly sunny.14 mph59%29.86 "HgN/A
2:20 PM66 °FScattered showers. Broken clouds.15 mph46%29.86 "HgN/A
1:50 PM64 °FBroken clouds.10 mph52%29.86 "HgN/A
1:20 PM64 °FBroken clouds.7 mph56%29.86 "HgN/A
12:50 PM61 °FBroken clouds.5 mph68%29.86 "HgN/A
12:20 PM57 °FLight rain. Broken clouds.3 mph72%29.86 "HgN/A
11:50 AM54 °FPartly sunny.6 mph77%29.89 "HgN/A
11:20 AM54 °FLight rain. Broken clouds.5 mph77%29.89 "HgN/A
10:50 AM54 °FLight rain. Partly sunny.3 mph77%29.89 "HgN/A
10:20 AM54 °FLight rain. Clear.2 mph72%29.89 "HgN/A
9:50 AM54 °FLight rain. Clear.3 mph63%29.89 "HgN/A
9:20 AM52 °FSunny.2 mph77%29.89 "Hg10 mi
8:50 AM52 °FLight rain. Clear.1 mph62%29.89 "HgN/A
8:20 AM48 °FSunny.No wind71%29.89 "Hg10 mi
7:50 AM46 °FPassing clouds.3 mph76%29.89 "HgN/A
7:20 AM43 °FPassing clouds.3 mph87%29.89 "HgN/A
6:50 AM43 °FClear.No wind87%29.86 "Hg10 mi
6:20 AM41 °FClear.1 mph87%29.86 "Hg10 mi
5:20 AM41 °FClear.1 mph87%29.86 "Hg10 mi
4:50 AM43 °FClear.2 mph81%29.86 "Hg10 mi
4:20 AM43 °FClear.No wind81%29.86 "Hg10 mi
Weather by CustomWeather, © 2015

See weather overviewHow to use our weather pages